Location: Drawsko Pomorskie
(53.5317°N, 15.8111°E)
Time: 11:12:48
(UTC+01:00)

ISS - Visible Passes

Search period start: 24 January 2019 00:00
Search period end: 03 February 2019 00:00
Orbit: 404 x 410 km, 51.6° (Epoch: 24 January)

Date Brightness Start Highest point End Pass type
(mag) Time Alt. Az. Time Alt. Az. Time Alt. Az.
24 Jan -1.3 17:51:12 10° SE 17:51:32 10° SE 17:51:51 10° SE visible
24 Jan -0.9 19:24:18 10° SW 19:24:47 13° SW 19:24:47 13° SW visible
25 Jan -2.2 18:33:19 10° SSW 18:35:41 24° SSE 18:35:41 24° SSE visible
26 Jan -1.8 17:42:34 10° SSW 17:44:55 18° SSE 17:46:30 14° ESE visible
26 Jan -1.6 19:17:46 10° WSW 19:19:14 23° SW 19:19:14 23° SW visible
27 Jan -3.1 18:26:33 10° SW 18:29:39 38° SSE 18:30:00 37° SE visible
27 Jan -0.2 20:02:41 10° W 20:02:43 10° W 20:02:43 10° W visible
28 Jan -2.5 17:35:27 10° SW 17:38:22 29° SSE 17:40:43 14° E visible
28 Jan -2.3 19:11:20 10° WSW 19:13:26 35° WSW 19:13:26 35° WSW visible
29 Jan -3.4 18:20:00 10° WSW 18:23:14 53° SSE 18:24:07 38° ESE visible
29 Jan -0.5 19:56:20 10° W 19:56:50 14° W 19:56:50 14° W visible
30 Jan -3.0 17:28:43 10° SW 17:31:52 43° SSE 17:34:47 12° E visible
30 Jan -2.9 19:04:56 10° W 19:07:30 47° WSW 19:07:30 47° WSW visible
31 Jan -3.6 18:13:32 10° WSW 18:16:48 62° S 18:18:09 31° ESE visible
31 Jan -0.8 19:49:58 10° W 19:50:52 17° W 19:50:52 17° W visible
01 Feb -3.4 17:22:08 10° WSW 17:25:24 57° S 17:28:39 10° E visible
01 Feb -3.3 18:58:31 10° W 19:01:32 53° SSW 19:01:32 53° SSW visible
02 Feb -3.5 18:07:04 10° W 18:10:21 61° S 18:12:12 23° ESE visible
02 Feb -1.1 19:43:37 10° W 19:44:55 19° WSW 19:44:55 19° WSW visible
